"Sample Date","Sample Time","Sample Value","Units","Flow Rate","Sample Interval","Number Channels","Micron Size 0","Counts/Channel 0","Micron Size 1","Counts/Channel 1","Micron Size 2","Counts/Channel 2","Micron Size 3","Counts/Channel 3","Micron Size 4","Counts/Channel 4","Micron Size 5","Counts/Channel 5","Micron Size 6","Counts/Channel 6","Micron Size 7","Counts/Channel 7","Micron Size 8","Counts/Channel 8","Micron Size 9","Counts/Channel 9","Micron Size 10","Counts/Channel 10","Micron Size 11","Counts/Channel 11","Micron Size 12","Counts/Channel 12","Micron Size 13","Counts/Channel 13","Micron Size 14","Counts/Channel 14","Micron Size 15","Counts/Channel 15","Micron Size 16","Counts/Channel 16","Micron Size 17","Counts/Channel 17","Micron Size 18","Counts/Channel 18","Micron Size 19","Counts/Channel 19","Micron Size 20","Counts/Channel 20","Micron Size 21","Counts/Channel 21","Micron Size 22","Counts/Channel 22","Micron Size 23","Counts/Channel 23","Micron Size 24","Counts/Channel 24","Micron Size 25","Counts/Channel 25","Micron Size 26","Counts/Channel 26","Micron Size 27","Counts/Channel 27","Micron Size 28","Counts/Channel 28","Micron Size 29","Counts/Channel 29","Micron Size 30","Counts/Channel 30","Micron Size 31","Counts/Channel 31"
"03/11/08","10:00:00",276423.000,"cc",28292.666,6.00,6,0.100,198575.000,0.200,67643.000,0.300,6151.000,0.500,3034.000,1.000,1020.000,5.000,0
"03/11/08","10:00:06",202111.000,"cc",28357.594,6.00,6,0.100,96784.000,0.200,94649.000,0.300,6885.000,0.500,2840.000,1.000,953.000,5.000,0
"03/11/08","10:00:12",399284.000,"cc",28315.906,6.00,6,0.100,346012.000,0.200,45844.000,0.300,3909.000,0.500,2574.000,1.000,945.000,5.000,0
"03/11/08","10:00:18",366289.000,"cc",28371.572,6.00,6,0.100,319075.000,0.200,39944.000,0.300,3726.000,0.500,2589.000,1.000,955.000,5.000,0
"03/11/08","10:00:24",241506.000,"cc",28286.344,6.00,6,0.100,210899.000,0.200,23962.000,0.300,3021.000,0.500,2654.000,1.000,970.000,5.000,0
"03/11/08","10:00:30",191930.000,"cc",28305.346,6.00,6,0.100,168664.000,0.200,17309.000,0.300,2612.000,0.500,2428.000,1.000,917.000,5.000,0
"03/11/08","10:00:36",159562.000,"cc",28359.799,6.00,6,0.100,139318.000,0.200,14341.000,0.300,2516.000,0.500,2457.000,1.000,930.000,5.000,0
"03/11/08","10:00:42",206239.000,"cc",28281.287,6.00,6,0.100,181339.000,0.200,18767.000,0.300,2725.000,0.500,2491.000,1.000,917.000,5.000,0
"03/11/08","10:00:48",262893.000,"cc",28292.275,6.00,6,0.100,231134.000,0.200,25221.000,0.300,3091.000,0.500,2522.000,1.000,925.000,5.000,0
"03/11/08","10:00:54",365542.000,"cc",28326.580,6.00,6,0.100,316892.000,0.200,41104.000,0.300,4015.000,0.500,2567.000,1.000,964.000,5.000,0
"03/11/08","10:01:00",286163.000,"cc",28330.537,6.00,6,0.100,250345.000,0.200,29009.000,0.300,3344.000,0.500,2538.000,1.000,927.000,5.000,0
"03/11/08","10:01:06",273823.000,"cc",28336.602,6.00,6,0.100,239928.000,0.200,27061.000,0.300,3221.000,0.500,2647.000,1.000,966.000,5.000,0
"03/11/08","10:01:12",243601.000,"cc",28368.924,6.00,6,0.100,212924.000,0.200,24204.000,0.300,2990.000,0.500,2514.000,1.000,969.000,5.000,0
"03/11/08","10:01:18",274217.000,"cc",28248.609,6.00,6,0.100,239297.000,0.200,28001.000,0.300,3323.000,0.500,2683.000,1.000,913.000,5.000,0
"03/11/08","10:01:24",237998.000,"cc",28272.772,6.00,6,0.100,205510.000,0.200,25828.000,0.300,3235.000,0.500,2535.000,1.000,890.000,5.000,0
"03/11/08","10:01:30",287566.000,"cc",28363.061,6.00,6,0.100,236719.000,0.200,43247.000,0.300,4106.000,0.500,2551.000,1.000,943.000,5.000,0
"03/11/08","10:01:36",167900.000,"cc",28382.041,6.00,6,0.100,145221.000,0.200,16243.000,0.300,2813.000,0.500,2659.000,1.000,964.000,5.000,0
"03/11/08","10:01:42",144330.000,"cc",28287.721,6.00,6,0.100,123910.000,0.200,14134.000,0.300,2740.000,0.500,2566.000,1.000,980.000,5.000,0
"03/11/08","10:01:48",321938.000,"cc",28265.281,6.00,6,0.100,278561.000,0.200,35871.000,0.300,4019.000,0.500,2546.000,1.000,941.000,5.000,0
"03/11/08","10:01:54",166850.000,"cc",28350.117,6.00,6,0.100,144766.000,0.200,15900.000,0.300,2684.000,0.500,2522.000,1.000,978.000,5.000,0
"03/11/08","10:02:00",195820.000,"cc",28322.584,6.00,6,0.100,170764.000,0.200,18840.000,0.300,2857.000,0.500,2460.000,1.000,899.000,5.000,0
"03/11/08","10:02:06",194887.000,"cc",28281.914,6.00,6,0.100,170121.000,0.200,18496.000,0.300,2857.000,0.500,2487.000,1.000,926.000,5.000,0
"03/11/08","10:02:12",252843.000,"cc",28325.906,6.00,6,0.100,221006.000,0.200,25206.000,0.300,3138.000,0.500,2513.000,1.000,980.000,5.000,0
"03/11/08","10:02:18",255375.000,"cc",28382.818,6.00,6,0.100,223017.000,0.200,25555.000,0.300,3187.000,0.500,2653.000,1.000,963.000,5.000,0
"03/11/08","10:02:24",285362.000,"cc",28263.594,6.00,6,0.100,249216.000,0.200,29208.000,0.300,3386.000,0.500,2605.000,1.000,947.000,5.000,0
"03/11/08","10:02:30",197535.000,"cc",28300.742,6.00,6,0.100,172262.000,0.200,18646.000,0.300,2944.000,0.500,2702.000,1.000,981.000,5.000,0
"03/11/08","10:02:36",210316.000,"cc",28318.258,6.00,6,0.100,182974.000,0.200,20777.000,0.300,2970.000,0.500,2597.000,1.000,998.000,5.000,0
"03/11/08","10:02:42",219951.000,"cc",28307.330,6.00,6,0.100,191263.000,0.200,21943.000,0.300,3190.000,0.500,2605.000,1.000,950.000,5.000,0
"03/11/08","10:02:48",169191.000,"cc",28366.434,6.00,6,0.100,146336.000,0.200,16546.000,0.300,2796.000,0.500,2558.000,1.000,955.000,5.000,0
"03/11/08","10:02:54",229526.000,"cc",28317.830,6.00,6,0.100,200214.000,0.200,22684.000,0.300,3083.000,0.500,2590.000,1.000,955.000,5.000,0
"03/11/08","10:03:00",240030.000,"cc",28293.092,6.00,6,0.100,209537.000,0.200,23553.000,0.300,3223.000,0.500,2715.000,1.000,1002.000,5.000,0
"03/11/08","10:03:06",243959.000,"cc",28286.527,6.00,6,0.100,212633.000,0.200,24270.000,0.300,3299.000,0.500,2785.000,1.000,972.000,5.000,0
"03/11/08","10:03:12",203863.000,"cc",28308.551,6.00,6,0.100,177766.000,0.200,19434.000,0.300,2906.000,0.500,2759.000,1.000,998.000,5.000,0
"03/11/08","10:03:18",313838.000,"cc",28308.086,6.00,6,0.100,273618.000,0.200,33168.000,0.300,3439.000,0.500,2642.000,1.000,971.000,5.000,0
"03/11/08","10:03:24",229895.000,"cc",28347.982,6.00,6,0.100,201395.000,0.200,21986.000,0.300,2932.000,0.500,2596.000,1.000,986.000,5.000,0
"03/11/08","10:03:30",249953.000,"cc",28299.947,6.00,6,0.100,218904.000,0.200,24452.000,0.300,2993.000,0.500,2598.000,1.000,1006.000,5.000,0
"03/11/08","10:03:36",119339.000,"cc",28280.291,6.00,6,0.100,102406.000,0.200,10654.000,0.300,2597.000,0.500,2705.000,1.000,977.000,5.000,0
"03/11/08","10:03:42",184062.000,"cc",28273.701,6.00,6,0.100,160584.000,0.200,16831.000,0.300,2889.000,0.500,2762.000,1.000,996.000,5.000,0
"03/11/08","10:03:48",138781.000,"cc",28288.672,6.00,6,0.100,119586.000,0.200,12894.000,0.300,2612.000,0.500,2676.000,1.000,1013.000,5.000,0
"03/11/08","10:03:54",172227.000,"cc",28336.170,6.00,6,0.100,149699.000,0.200,15986.000,0.300,2792.000,0.500,2743.000,1.000,1007.000,5.000,0
"03/11/08","10:04:00",83389.000,"cc",28345.492,6.00,6,0.100,69902.000,0.200,7665.000,0.300,2350.000,0.500,2490.000,1.000,982.000,5.000,0
"03/11/08","10:04:06",128254.000,"cc",28367.500,6.00,6,0.100,109961.000,0.200,11865.000,0.300,2696.000,0.500,2679.000,1.000,1053.000,5.000,0
"03/11/08","10:04:12",257943.000,"cc",28323.699,6.00,6,0.100,224050.000,0.200,27081.000,0.300,3263.000,0.500,2570.000,1.000,979.000,5.000,0
"03/11/08","10:04:18",233021.000,"cc",28325.752,6.00,6,0.100,202964.000,0.200,23505.000,0.300,3005.000,0.500,2665.000,1.000,882.000,5.000,0
"03/11/08","10:04:24",253025.000,"cc",28333.828,6.00,6,0.100,220523.000,0.200,25518.000,0.300,3319.000,0.500,2694.000,1.000,971.000,5.000,0
"03/11/08","10:04:30",167399.000,"cc",28279.090,6.00,6,0.100,144943.000,0.200,16062.000,0.300,2767.000,0.500,2636.000,1.000,991.000,5.000,0
"03/11/08","10:04:36",165352.000,"cc",28352.625,6.00,6,0.100,143268.000,0.200,16038.000,0.300,2662.000,0.500,2445.000,1.000,939.000,5.000,0
"03/11/08","10:04:42",135523.000,"cc",28272.953,6.00,6,0.100,116498.000,0.200,12822.000,0.300,2598.000,0.500,2639.000,1.000,966.000,5.000,0
"03/11/08","10:04:48",176418.000,"cc",28351.523,6.00,6,0.100,153152.000,0.200,17025.000,0.300,2684.000,0.500,2620.000,1.000,937.000,5.000,0
"03/11/08","10:04:54",216085.000,"cc",28379.121,6.00,6,0.100,188690.000,0.200,20989.000,0.300,2907.000,0.500,2563.000,1.000,936.000,5.000,0
"03/11/08","10:05:00",189883.000,"cc",28293.330,6.00,6,0.100,165056.000,0.200,18379.000,0.300,2795.000,0.500,2643.000,1.000,1010.000,5.000,0
"03/11/08","10:05:06",91856.000,"cc",28265.309,6.00,6,0.100,77495.000,0.200,8563.000,0.300,2379.000,0.500,2515.000,1.000,904.000,5.000,0
"03/11/08","10:05:12",103497.000,"cc",28313.760,6.00,6,0.100,87721.000,0.200,9630.000,0.300,2550.000,0.500,2679.000,1.000,917.000,5.000,0
"03/11/08","10:05:18",112956.000,"cc",28303.238,6.00,6,0.100,96331.000,0.200,10502.000,0.300,2500.000,0.500,2662.000,1.000,961.000,5.000,0
"03/11/08","10:05:24",105814.000,"cc",28340.531,6.00,6,0.100,89925.000,0.200,10012.000,0.300,2435.000,0.500,2519.000,1.000,923.000,5.000,0
"03/11/08","10:05:30",81123.000,"cc",28348.998,6.00,6,0.100,67632.000,0.200,7603.000,0.300,2270.000,0.500,2641.000,1.000,977.000,5.000,0
"03/11/08","10:05:36",81186.000,"cc",28291.832,6.00,6,0.100,67531.000,0.200,7644.000,0.300,2420.000,0.500,2614.000,1.000,977.000,5.000,0
"03/11/08","10:05:42",125285.000,"cc",28364.496,6.00,6,0.100,107108.000,0.200,11891.000,0.300,2640.000,0.500,2665.000,1.000,981.000,5.000,0
"03/11/08","10:05:48",127157.000,"cc",28297.885,6.00,6,0.100,109140.000,0.200,11836.000,0.300,2668.000,0.500,2574.000,1.000,939.000,5.000,0
"03/11/08","10:05:54",79392.000,"cc",28285.367,6.00,6,0.100,66021.000,0.200,7484.000,0.300,2328.000,0.500,2567.000,1.000,992.000,5.000,0
"03/11/08","10:06:00",76582.000,"cc",28244.559,6.00,6,0.100,63277.000,0.200,7483.000,0.300,2386.000,0.500,2474.000,1.000,962.000,5.000,0
"03/11/08","10:06:06",76901.000,"cc",28326.270,6.00,6,0.100,63571.000,0.200,7356.000,0.300,2434.000,0.500,2633.000,1.000,907.000,5.000,0
"03/11/08","10:06:12",68558.000,"cc",28330.625,6.00,6,0.100,55860.000,0.200,6738.000,0.300,2392.000,0.500,2630.000,1.000,938.000,5.000,0
"03/11/08","10:06:18",82763.000,"cc",28262.791,6.00,6,0.100,68701.000,0.200,7980.000,0.300,2497.000,0.500,2611.000,1.000,974.000,5.000,0
"03/11/08","10:06:24",83768.000,"cc",28333.662,6.00,6,0.100,69515.000,0.200,8136.000,0.300,2422.000,0.500,2752.000,1.000,943.000,5.000,0
"03/11/08","10:06:30",97566.000,"cc",28391.453,6.00,6,0.100,82217.000,0.200,9344.000,0.300,2488.000,0.500,2545.000,1.000,972.000,5.000,0
"03/11/08","10:06:36",99848.000,"cc",28354.199,6.00,6,0.100,84528.000,0.200,9381.000,0.300,2410.000,0.500,2581.000,1.000,948.000,5.000,0
"03/11/08","10:06:42",139214.000,"cc",28311.190,6.00,6,0.100,119906.000,0.200,13261.000,0.300,2524.000,0.500,2592.000,1.000,931.000,5.000,0
"03/11/08","10:06:48",148915.000,"cc",28332.430,6.00,6,0.100,128200.000,0.200,14431.000,0.300,2696.000,0.500,2601.000,1.000,987.000,5.000,0
"03/11/08","10:06:54",94996.000,"cc",28299.910,6.00,6,0.100,80019.000,0.200,8914.000,0.300,2476.000,0.500,2646.000,1.000,941.000,5.000,0
"03/11/08","10:07:00",197111.000,"cc",28321.941,6.00,6,0.100,171551.000,0.200,18936.000,0.300,2918.000,0.500,2752.000,1.000,954.000,5.000,0
"03/11/08","10:07:06",237525.000,"cc",28357.410,6.00,6,0.100,207417.000,0.200,23327.000,0.300,3108.000,0.500,2697.000,1.000,976.000,5.000,0
"03/11/08","10:07:12",183543.000,"cc",28292.117,6.00,6,0.100,158966.000,0.200,18037.000,0.300,2801.000,0.500,2679.000,1.000,1060.000,5.000,0
"03/11/08","10:07:18",129497.000,"cc",28259.033,6.00,6,0.100,111225.000,0.200,11983.000,0.300,2626.000,0.500,2684.000,1.000,979.000,5.000,0
"03/11/08","10:07:24",114073.000,"cc",28298.754,6.00,6,0.100,97489.000,0.200,10560.000,0.300,2568.000,0.500,2480.000,1.000,976.000,5.000,0
"03/11/08","10:07:30",104971.000,"cc",28324.330,6.00,6,0.100,88750.000,0.200,10038.000,0.300,2551.000,0.500,2642.000,1.000,990.000,5.000,0
"03/11/08","10:07:36",114455.000,"cc",28307.953,6.00,6,0.100,97684.000,0.200,10636.000,0.300,2587.000,0.500,2566.000,1.000,982.000,5.000,0
"03/11/08","10:07:42",93727.000,"cc",28298.691,6.00,6,0.100,78639.000,0.200,8818.000,0.300,2585.000,0.500,2686.000,1.000,999.000,5.000,0
"03/11/08","10:07:48",127003.000,"cc",28344.375,6.00,6,0.100,108653.000,0.200,12137.000,0.300,2582.000,0.500,2614.000,1.000,1017.000,5.000,0
"03/11/08","10:07:54",202548.000,"cc",28317.234,6.00,6,0.100,175577.000,0.200,20172.000,0.300,2973.000,0.500,2775.000,1.000,1051.000,5.000,0
"03/11/08","10:08:00",109076.000,"cc",28311.248,6.00,6,0.100,92217.000,0.200,10366.000,0.300,2671.000,0.500,2767.000,1.000,1055.000,5.000,0
"03/11/08","10:08:06",79626.000,"cc",28343.701,6.00,6,0.100,65710.000,0.200,7715.000,0.300,2419.000,0.500,2723.000,1.000,1059.000,5.000,0
"03/11/08","10:08:12",114740.000,"cc",28342.137,6.00,6,0.100,97133.000,0.200,11193.000,0.300,2684.000,0.500,2718.000,1.000,1012.000,5.000,0
"03/11/08","10:08:18",105713.000,"cc",28275.174,6.00,6,0.100,89324.000,0.200,10032.000,0.300,2610.000,0.500,2728.000,1.000,1019.000,5.000,0
"03/11/08","10:08:24",147332.000,"cc",28298.063,6.00,6,0.100,126641.000,0.200,14020.000,0.300,2834.000,0.500,2790.000,1.000,1047.000,5.000,0
"03/11/08","10:08:30",188059.000,"cc",28333.367,6.00,6,0.100,162963.000,0.200,18450.000,0.300,2939.000,0.500,2699.000,1.000,1008.000,5.000,0
"03/11/08","10:08:36",200408.000,"cc",28298.324,6.00,6,0.100,173622.000,0.200,19856.000,0.300,3090.000,0.500,2786.000,1.000,1054.000,5.000,0
"03/11/08","10:08:42",130347.000,"cc",28329.723,6.00,6,0.100,110981.000,0.200,12516.000,0.300,2898.000,0.500,2908.000,1.000,1044.000,5.000,0
"03/11/08","10:08:48",194053.000,"cc",28296.029,6.00,6,0.100,167957.000,0.200,19153.000,0.300,3056.000,0.500,2827.000,1.000,1060.000,5.000,0
"03/11/08","10:08:54",113902.000,"cc",28326.244,6.00,6,0.100,96899.000,0.200,10717.000,0.300,2601.000,0.500,2721.000,1.000,964.000,5.000,0
"03/11/08","10:09:00",125140.000,"cc",28314.125,6.00,6,0.100,106440.000,0.200,12230.000,0.300,2794.000,0.500,2635.000,1.000,1041.000,5.000,0
"03/11/08","10:09:06",101771.000,"cc",28312.035,6.00,6,0.100,85883.000,0.200,9830.000,0.300,2418.000,0.500,2680.000,1.000,960.000,5.000,0
"03/11/08","10:09:12",137527.000,"cc",28373.512,6.00,6,0.100,118039.000,0.200,13223.000,0.300,2665.000,0.500,2617.000,1.000,983.000,5.000,0
"03/11/08","10:09:18",121506.000,"cc",28316.299,6.00,6,0.100,103484.000,0.200,11701.000,0.300,2589.000,0.500,2755.000,1.000,977.000,5.000,0
"03/11/08","10:09:24",152420.000,"cc",28306.922,6.00,6,0.100,131133.000,0.200,14807.000,0.300,2791.000,0.500,2682.000,1.000,1007.000,5.000,0
"03/11/08","10:09:30",174388.000,"cc",28344.090,6.00,6,0.100,150788.000,0.200,17026.000,0.300,2852.000,0.500,2730.000,1.000,992.000,5.000,0
"03/11/08","10:09:36",118243.000,"cc",28291.176,6.00,6,0.100,101050.000,0.200,11146.000,0.300,2517.000,0.500,2621.000,1.000,909.000,5.000,0
"03/11/08","10:09:42",148298.000,"cc",28313.861,6.00,6,0.100,127692.000,0.200,14337.000,0.300,2708.000,0.500,2615.000,1.000,946.000,5.000,0
"03/11/08","10:09:48",156217.000,"cc",28287.334,6.00,6,0.100,134152.000,0.200,15678.000,0.300,2782.000,0.500,2589.000,1.000,1016.000,5.000,0
"03/11/08","10:09:54",197208.000,"cc",28365.580,6.00,6,0.100,170051.000,0.200,20365.000,0.300,3142.000,0.500,2626.000,1.000,1024.000,5.000,0
"03/11/08","10:10:00",160499.000,"cc",28304.121,6.00,6,0.100,137844.000,0.200,16146.000,0.300,2751.000,0.500,2753.000,1.000,1005.000,5.000,0
"03/11/08","10:10:06",218910.000,"cc",28308.432,6.00,6,0.100,189188.000,0.200,22970.000,0.300,3139.000,0.500,2638.000,1.000,975.000,5.000,0
"03/11/08","10:10:12",148837.000,"cc",28299.178,6.00,6,0.100,127946.000,0.200,14538.000,0.300,2719.000,0.500,2655.000,1.000,979.000,5.000,0
"03/11/08","10:10:18",89730.000,"cc",28294.955,6.00,6,0.100,74914.000,0.200,8666.000,0.300,2486.000,0.500,2668.000,1.000,996.000,5.000,0
"03/11/08","10:10:24",104559.000,"cc",28360.836,6.00,6,0.100,88600.000,0.200,9938.000,0.300,2458.000,0.500,2549.000,1.000,1014.000,5.000,0
"03/11/08","10:10:30",114788.000,"cc",28299.043,6.00,6,0.100,98105.000,0.200,10659.000,0.300,2442.000,0.500,2730.000,1.000,852.000,5.000,0
"03/11/08","10:10:36",109088.000,"cc",28339.234,6.00,6,0.100,92696.000,0.200,10392.000,0.300,2452.000,0.500,2596.000,1.000,952.000,5.000,0
"03/11/08","10:10:42",150787.000,"cc",28328.834,6.00,6,0.100,129970.000,0.200,14453.000,0.300,2751.000,0.500,2634.000,1.000,979.000,5.000,0
"03/11/08","10:10:48",164679.000,"cc",28337.184,6.00,6,0.100,141921.000,0.200,16064.000,0.300,2828.000,0.500,2829.000,1.000,1037.000,5.000,0
"03/11/08","10:10:54",128874.000,"cc",28320.195,6.00,6,0.100,109726.000,0.200,12440.000,0.300,2849.000,0.500,2808.000,1.000,1051.000,5.000,0
"03/11/08","10:11:00",100785.000,"cc",28281.070,6.00,6,0.100,84712.000,0.200,9794.000,0.300,2607.000,0.500,2651.000,1.000,1021.000,5.000,0
"03/11/08","10:11:06",135425.000,"cc",28302.391,6.00,6,0.100,115393.000,0.200,13485.000,0.300,2744.000,0.500,2794.000,1.000,1009.000,5.000,0
"03/11/08","10:11:12",116488.000,"cc",28323.553,6.00,6,0.100,98725.000,0.200,11248.000,0.300,2676.000,0.500,2786.000,1.000,1053.000,5.000,0
"03/11/08","10:11:18",101592.000,"cc",28326.621,6.00,6,0.100,85258.000,0.200,9738.000,0.300,2704.000,0.500,2871.000,1.000,1021.000,5.000,0
"03/11/08","10:11:24",68033.000,"cc",28359.410,6.00,6,0.100,55254.000,0.200,6604.000,0.300,2452.000,0.500,2720.000,1.000,1003.000,5.000,0
"03/11/08","10:11:30",98988.000,"cc",28278.887,6.00,6,0.100,83640.000,0.200,9175.000,0.300,2529.000,0.500,2660.000,1.000,984.000,5.000,0
"03/11/08","10:11:36",118820.000,"cc",28298.481,6.00,6,0.100,101312.000,0.200,11455.000,0.300,2494.000,0.500,2570.000,1.000,989.000,5.000,0
"03/11/08","10:11:42",173274.000,"cc",28295.674,6.00,6,0.100,149584.000,0.200,17126.000,0.300,2869.000,0.500,2679.000,1.000,1016.000,5.000,0
"03/11/08","10:11:48",115658.000,"cc",28326.178,6.00,6,0.100,99111.000,0.200,10723.000,0.300,2471.000,0.500,2486.000,1.000,867.000,5.000,0
"03/11/08","10:11:54",117219.000,"cc",28289.262,6.00,6,0.100,100220.000,0.200,10999.000,0.300,2500.000,0.500,2533.000,1.000,967.000,5.000,0
"03/11/08","10:12:00",142761.000,"cc",28372.147,6.00,6,0.100,122883.000,0.200,13538.000,0.300,2679.000,0.500,2661.000,1.000,1000.000,5.000,0
"03/11/08","10:12:06",178519.000,"cc",28333.162,6.00,6,0.100,154183.000,0.200,17740.000,0.300,2838.000,0.500,2772.000,1.000,985.000,5.000,1.000
"03/11/08","10:12:12",183805.000,"cc",28315.377,6.00,6,0.100,159863.000,0.200,17626.000,0.300,2758.000,0.500,2610.000,1.000,948.000,5.000,0
"03/11/08","10:12:18",231471.000,"cc",28304.559,6.00,6,0.100,201029.000,0.200,23567.000,0.300,3081.000,0.500,2729.000,1.000,1065.000,5.000,0
"03/11/08","10:12:24",179523.000,"cc",28252.256,6.00,6,0.100,155142.000,0.200,17608.000,0.300,2936.000,0.500,2797.000,1.000,1040.000,5.000,0
"03/11/08","10:12:30",156311.000,"cc",28326.082,6.00,6,0.100,134598.000,0.200,15356.000,0.300,2756.000,0.500,2663.000,1.000,938.000,5.000,0
"03/11/08","10:12:36",67015.000,"cc",28375.992,6.00,6,0.100,53916.000,0.200,6836.000,0.300,2488.000,0.500,2710.000,1.000,1065.000,5.000,0
"03/11/08","10:12:42",80665.000,"cc",28271.846,6.00,6,0.100,66877.000,0.200,7702.000,0.300,2493.000,0.500,2647.000,1.000,946.000,5.000,0
"03/11/08","10:12:48",131394.000,"cc",28313.426,6.00,6,0.100,112184.000,0.200,12927.000,0.300,2728.000,0.500,2586.000,1.000,969.000,5.000,0
"03/11/08","10:12:54",120197.000,"cc",28333.832,6.00,6,0.100,102238.000,0.200,11675.000,0.300,2642.000,0.500,2698.000,1.000,944.000,5.000,0
"03/11/08","10:13:00",146690.000,"cc",28347.793,6.00,6,0.100,125849.000,0.200,14245.000,0.300,2856.000,0.500,2720.000,1.000,1020.000,5.000,0
"03/11/08","10:13:06",92781.000,"cc",28315.996,6.00,6,0.100,77722.000,0.200,8964.000,0.300,2499.000,0.500,2624.000,1.000,972.000,5.000,0
"03/11/08","10:13:12",92790.000,"cc",28309.965,6.00,6,0.100,77305.000,0.200,9058.000,0.300,2624.000,0.500,2829.000,1.000,974.000,5.000,0
"03/11/08","10:13:18",76160.000,"cc",28298.404,6.00,6,0.100,62404.000,0.200,7589.000,0.300,2374.000,0.500,2762.000,1.000,1031.000,5.000,0
"03/11/08","10:13:24",97799.000,"cc",28261.166,6.00,6,0.100,81927.000,0.200,9540.000,0.300,2598.000,0.500,2704.000,1.000,1030.000,5.000,0
"03/11/08","10:13:30",64005.000,"cc",28342.803,6.00,6,0.100,51324.000,0.200,6467.000,0.300,2519.000,0.500,2731.000,1.000,964.000,5.000,0
"03/11/08","10:13:36",132174.000,"cc",28346.285,6.00,6,0.100,112779.000,0.200,13001.000,0.300,2649.000,0.500,2688.000,1.000,1057.000,5.000,0
"03/11/08","10:13:42",136019.000,"cc",28369.111,6.00,6,0.100,115638.000,0.200,13502.000,0.300,2868.000,0.500,2909.000,1.000,1102.000,5.000,0
"03/11/08","10:13:48",122109.000,"cc",28252.787,6.00,6,0.100,103993.000,0.200,11609.000,0.300,2761.000,0.500,2712.000,1.000,1034.000,5.000,0
"03/11/08","10:13:54",130103.000,"cc",28281.197,6.00,6,0.100,110454.000,0.200,12943.000,0.300,2876.000,0.500,2772.000,1.000,1058.000,5.000,0
"03/11/08","10:14:00",159848.000,"cc",28330.898,6.00,6,0.100,137345.000,0.200,15569.000,0.300,2986.000,0.500,2857.000,1.000,1091.000,5.000,0
"03/11/08","10:14:06",162624.000,"cc",28343.295,6.00,6,0.100,139978.000,0.200,15760.000,0.300,2944.000,0.500,2829.000,1.000,1113.000,5.000,0
"03/11/08","10:14:12",86458.000,"cc",28295.625,6.00,6,0.100,71962.000,0.200,8186.000,0.300,2556.000,0.500,2775.000,1.000,979.000,5.000,0
"03/11/08","10:14:18",168864.000,"cc",28341.660,6.00,6,0.100,145797.000,0.200,16355.000,0.300,2940.000,0.500,2732.000,1.000,1040.000,5.000,0
"03/11/08","10:14:24",108025.000,"cc",28284.754,6.00,6,0.100,91402.000,0.200,10128.000,0.300,2637.000,0.500,2797.000,1.000,1061.000,5.000,0
"03/11/08","10:14:30",175574.000,"cc",28291.832,6.00,6,0.100,152002.000,0.200,16753.000,0.300,2981.000,0.500,2812.000,1.000,1026.000,5.000,0
"03/11/08","10:14:36",123575.000,"cc",28372.910,6.00,6,0.100,105699.000,0.200,11730.000,0.300,2577.000,0.500,2587.000,1.000,982.000,5.000,0
"03/11/08","10:14:42",289318.000,"cc",28321.912,6.00,6,0.100,249242.000,0.200,32598.000,0.300,3649.000,0.500,2810.000,1.000,1019.000,5.000,0
"03/11/08","10:14:48",352909.000,"cc",28357.279,6.00,6,0.100,303039.000,0.200,41990.000,0.300,4068.000,0.500,2804.000,1.000,1008.000,5.000,0
"03/11/08","10:14:54",291915.000,"cc",28335.229,6.00,6,0.100,251728.000,0.200,32617.000,0.300,3694.000,0.500,2791.000,1.000,1085.000,5.000,0
"03/11/08","10:15:00",277075.000,"cc",28302.045,6.00,6,0.100,237827.000,0.200,31663.000,0.300,3698.000,0.500,2868.000,1.000,1019.000,5.000,0
"03/11/08","10:15:06",119921.000,"cc",28286.732,6.00,6,0.100,102242.000,0.200,11601.000,0.300,2545.000,0.500,2544.000,1.000,989.000,5.000,0
"03/11/08","10:15:12",227887.000,"cc",28297.342,6.00,6,0.100,196922.000,0.200,23992.000,0.300,3129.000,0.500,2798.000,1.000,1046.000,5.000,0
"03/11/08","10:15:18",272638.000,"cc",28302.195,6.00,6,0.100,236455.000,0.200,29171.000,0.300,3318.000,0.500,2742.000,1.000,952.000,5.000,0
"03/11/08","10:15:24",132578.000,"cc",28301.240,6.00,6,0.100,113112.000,0.200,13049.000,0.300,2683.000,0.500,2728.000,1.000,1006.000,5.000,0
"03/11/08","10:15:30",169931.000,"cc",28332.791,6.00,6,0.100,147050.000,0.200,16438.000,0.300,2765.000,0.500,2706.000,1.000,972.000,5.000,0
"03/11/08","10:15:36",155935.000,"cc",28256.758,6.00,6,0.100,134432.000,0.200,15008.000,0.300,2772.000,0.500,2755.000,1.000,968.000,5.000,0
"03/11/08","10:15:42",150830.000,"cc",28388.348,6.00,6,0.100,130173.000,0.200,14177.000,0.300,2750.000,0.500,2734.000,1.000,996.000,5.000,0
"03/11/08","10:15:48",119741.000,"cc",28288.219,6.00,6,0.100,102056.000,0.200,11395.000,0.300,2591.000,0.500,2672.000,1.000,1027.000,5.000,0
"03/11/08","10:15:54",117831.000,"cc",28281.606,6.00,6,0.100,100346.000,0.200,11002.000,0.300,2777.000,0.500,2690.000,1.000,1016.000,5.000,0
"03/11/08","10:16:00",116534.000,"cc",28239.828,6.00,6,0.100,99163.000,0.200,11060.000,0.300,2563.000,0.500,2704.000,1.000,1044.000,5.000,0